Location: Houston
(29.7631°N, 95.3631°W)
Time: 21:43:34
(UTC-05:00)

Tianhe-1 - Visible Passes

Search period start: 21 June 2021 00:00
Search period end: 01 July 2021 00:00
Orbit: 375 x 386 km, 41.5° (Epoch: 21 June)

Date Brightness Start Highest point End Pass type
(mag) Time Alt. Az. Time Alt. Az. Time Alt. Az.
21 Jun 3.1 04:31:49 19° NW 04:32:27 21° NNW 04:34:54 10° NNE visible
22 Jun 4.2 03:33:28 15° NE 03:33:28 15° NE 03:34:12 10° NE visible
22 Jun 4.0 05:07:29 10° NNW 05:08:40 12° N 05:09:52 10° NNE visible
23 Jun 3.7 04:07:12 15° NNW 04:07:23 15° NNW 04:09:18 10° NNE visible
24 Jun 4.3 04:43:22 10° N 04:43:43 10° N 04:44:05 10° N visible
25 Jun 4.3 03:42:37 12° N 03:42:37 12° N 03:43:38 10° NNE visible
25 Jun 4.3 05:19:12 10° N 05:20:07 11° N 05:21:02 10° NNE visible
26 Jun 4.0 05:54:06 10° NNW 05:56:23 18° NNE 05:58:39 10° ENE visible
27 Jun 4.2 04:53:31 10° NNW 04:55:09 13° NNE 04:56:45 10° NE visible
28 Jun 4.4 03:53:03 10° N 03:53:51 11° N 03:54:39 10° NNE visible
28 Jun 3.3 05:28:33 10° NW 05:31:17 27° NNE 05:34:01 10° E visible
29 Jun 4.0 04:27:54 10° NNW 04:30:07 17° NNE 04:32:20 10° ENE visible
30 Jun 4.5 03:29:21 13° NNE 03:29:21 13° NNE 03:30:25 10° NE visible
30 Jun 2.2 05:03:05 10° NW 05:06:07 46° NNE 05:09:10 10° ESE visible
30 Jun 3.1 21:33:37 10° S 21:34:24 14° S 21:34:24 14° S visible
